User: anonymous   Login
Location: Unspecified
(0.0000°N, 0.0000°E)
Time: 00:57:17
(UTC+00:00)
Language:

STARLINK-3178 - Orbit

View from above orbital plane
View from above orbital plane
View from above satellite
View from above satellite

Ground track
Ground track

The orbit is defined by the following mean orbital elements,

1 51467U          26145.44276764 +.00000000 +00000-0 +32465-4 0 00008
2 51467  53.2131 294.5603 0001225  85.6387 274.4745 15.08840551    06
Epoch (UTC): 25 May 2026 10:37:35
Eccentricity: 0.0001225
inclination: 53.2131°
perigee height: 539 km
apogee height: 541 km
right ascension of ascending node: 294.5603°
argument of perigee: 85.6387°
revolutions per day: 15.08840551
mean anomaly at epoch: 274.4745°

The dashed part of the orbit path shows where the satellite is in the earth's shadow,  

DLR